AJM1FT TNCM-TTCP

Flight info

Callsign AJM1FT
Flight time 1h 25m
Altitude 23000
Route MODOR2 ZPATA A517 PPR/N0459F410 UA312 FOF/N0459F400 UA324 GND/N0387F230 R508 ELTUN
Aircraft A343/H-SDE2E3FGHIJ4J5M1RWXY/LB1D1

Departure

Time 2026-04-25 19:33
Airport Princess Juliana International Airport (TNCM)

Arrival

Time 2026-04-25 20:58
Airport A.N.R. Robinson International Airport (TTCP)
Time Latitude Longitude Altitude Speed Heading
2026-04-25 19:06 18.04327 -63.11362 25 ft 0 kts 351°
2026-04-25 19:19 18.04320 -63.11361 25 ft 4 kts 351°
2026-04-25 19:19 18.04293 -63.11356 39 ft 4 kts 352°
2026-04-25 19:19 18.04267 -63.11353 28 ft 4 kts
2026-04-25 19:19 18.04251 -63.11357 30 ft 4 kts 36°
2026-04-25 19:20 18.04236 -63.11381 30 ft 2 kts 81°
2026-04-25 19:20 18.04234 -63.11397 30 ft 0 kts 81°
2026-04-25 19:23 18.04234 -63.11395 25 ft 1 kts 82°
2026-04-25 19:23 18.04236 -63.11380 27 ft 4 kts 82°
2026-04-25 19:24 18.04234 -63.11344 28 ft 5 kts 107°
2026-04-25 19:24 18.04206 -63.11314 27 ft 6 kts 150°
2026-04-25 19:24 18.04152 -63.11299 30 ft 0 kts 169°
2026-04-25 19:28 18.04151 -63.11299 30 ft 1 kts 169°
2026-04-25 19:28 18.04133 -63.11295 28 ft 4 kts 169°
2026-04-25 19:28 18.04097 -63.11288 27 ft 6 kts 170°
2026-04-25 19:29 18.04051 -63.11291 27 ft 6 kts 212°
2026-04-25 19:29 18.04032 -63.11336 27 ft 9 kts 258°
2026-04-25 19:29 18.04018 -63.11417 26 ft 14 kts 261°
2026-04-25 19:29 18.04003 -63.11528 25 ft 16 kts 262°
2026-04-25 19:30 18.03991 -63.11611 26 ft 17 kts 261°
2026-04-25 19:30 18.03966 -63.11782 30 ft 14 kts 261°
2026-04-25 19:30 18.03974 -63.11875 29 ft 14 kts 283°
2026-04-25 19:30 18.03988 -63.11940 27 ft 3 kts 271°
2026-04-25 19:31 18.03977 -63.11955 30 ft 2 kts 223°
2026-04-25 19:31 18.03959 -63.11958 28 ft 2 kts 175°
2026-04-25 19:31 18.03946 -63.11945 30 ft 2 kts 127°
2026-04-25 19:31 18.03948 -63.11931 31 ft 0 kts 83°
2026-04-25 19:32 18.03958 -63.11856 29 ft 32 kts 82°
2026-04-25 19:32 18.04023 -63.11389 27 ft 95 kts 82°
2026-04-25 19:32 18.04058 -63.11134 28 ft 113 kts 81°
2026-04-25 19:33 18.04314 -63.09367 365 ft 162 kts 84°
2026-04-25 19:33 18.03898 -63.08303 817 ft 167 kts 143°
2026-04-25 19:33 18.02784 -63.08093 1407 ft 173 kts 193°
2026-04-25 19:33 18.01543 -63.08308 1835 ft 196 kts 184°
2026-04-25 19:34 18.00102 -63.08444 2397 ft 219 kts 185°
2026-04-25 19:34 17.98514 -63.08616 3099 ft 239 kts 186°
2026-04-25 19:34 17.96816 -63.08713 4022 ft 248 kts 179°
2026-04-25 19:34 17.95080 -63.08640 5010 ft 251 kts 178°
2026-04-25 19:35 17.93315 -63.08537 5908 ft 257 kts 178°
2026-04-25 19:35 17.91504 -63.08431 6776 ft 263 kts 178°
2026-04-25 19:35 17.89661 -63.08324 7638 ft 268 kts 178°
2026-04-25 19:35 17.87786 -63.08091 8487 ft 276 kts 168°
2026-04-25 19:36 17.85989 -63.07330 9331 ft 283 kts 153°
2026-04-25 19:36 17.84265 -63.06282 10150 ft 289 kts 151°
2026-04-25 19:36 17.82549 -63.05196 10899 ft 293 kts 151°
2026-04-25 19:36 17.80785 -63.04084 11663 ft 298 kts 152°
2026-04-25 19:37 17.78992 -63.02961 12420 ft 302 kts 152°
2026-04-25 19:37 17.77167 -63.01823 13172 ft 307 kts 152°
2026-04-25 19:37 17.75314 -63.00670 13893 ft 311 kts 152°
2026-04-25 19:37 17.73442 -62.99506 14569 ft 314 kts 152°
2026-04-25 19:38 17.71550 -62.98331 15251 ft 317 kts 152°
2026-04-25 19:38 17.69642 -62.97147 15937 ft 320 kts 153°
2026-04-25 19:38 17.67738 -62.95966 16592 ft 323 kts 153°
2026-04-25 19:38 17.65794 -62.94761 17263 ft 326 kts 153°
2026-04-25 19:39 17.63833 -62.93545 17927 ft 329 kts 153°
2026-04-25 19:39 17.61853 -62.92318 18551 ft 332 kts 153°
2026-04-25 19:39 17.59851 -62.91079 19093 ft 336 kts 153°
2026-04-25 19:39 17.57824 -62.89824 19632 ft 340 kts 153°
2026-04-25 19:40 17.55775 -62.88555 20172 ft 344 kts 153°
2026-04-25 19:40 17.53704 -62.87273 20721 ft 348 kts 153°
2026-04-25 19:40 17.51611 -62.85978 21259 ft 351 kts 153°
2026-04-25 19:40 17.49496 -62.84669 21810 ft 355 kts 154°
2026-04-25 19:41 17.47355 -62.83346 22346 ft 359 kts 154°
2026-04-25 19:41 17.45172 -62.82066 22897 ft 360 kts 157°
2026-04-25 19:41 17.42923 -62.80912 23473 ft 360 kts 159°
2026-04-25 19:41 17.42182 -62.80551 23650 ft 361 kts 160°
2026-04-25 19:42 17.38331 -62.78719 24346 ft 366 kts 160°
2026-04-25 19:42 17.36003 -62.77606 24769 ft 369 kts 160°
2026-04-25 19:42 17.33692 -62.76484 25157 ft 373 kts 160°
2026-04-25 19:42 17.31383 -62.75186 25562 ft 379 kts 154°
2026-04-25 19:43 17.29198 -62.73583 25997 ft 387 kts 146°
2026-04-25 19:43 17.27195 -62.71662 26394 ft 394 kts 140°
2026-04-25 19:43 17.25298 -62.69566 26792 ft 399 kts 138°
2026-04-25 19:43 17.23434 -62.67394 27170 ft 403 kts 137°
2026-04-25 19:44 17.21578 -62.65177 27559 ft 406 kts 136°
2026-04-25 19:44 17.20343 -62.63695 27812 ft 409 kts 137°
2026-04-25 19:44 17.18467 -62.61447 28189 ft 412 kts 137°
2026-04-25 19:44 17.16572 -62.59188 28579 ft 415 kts 137°
2026-04-25 19:45 17.14663 -62.56926 28925 ft 416 kts 137°
2026-04-25 19:45 17.12111 -62.53913 29438 ft 418 kts 138°
2026-04-25 19:45 17.10798 -62.52368 29711 ft 419 kts 138°
2026-04-25 19:45 17.08226 -62.49348 30207 ft 420 kts 137°
2026-04-25 19:46 17.06953 -62.47849 30692 ft 411 kts 137°
2026-04-25 19:46 17.05083 -62.45642 31403 ft 401 kts 138°
2026-04-25 19:46 17.03240 -62.43472 31853 ft 398 kts 138°
2026-04-25 19:46 17.01404 -62.41318 32233 ft 396 kts 139°
2026-04-25 19:47 16.99561 -62.39162 32459 ft 400 kts 139°
2026-04-25 19:47 16.97696 -62.36985 32697 ft 402 kts 139°
2026-04-25 19:47 16.95829 -62.34802 32989 ft 403 kts 139°
2026-04-25 19:47 16.93964 -62.32618 33327 ft 403 kts 139°
2026-04-25 19:48 16.92103 -62.30437 33658 ft 402 kts 139°
2026-04-25 19:48 16.90243 -62.28255 34003 ft 401 kts 139°
2026-04-25 19:48 16.88390 -62.26084 34277 ft 400 kts 139°
2026-04-25 19:48 16.86543 -62.23920 34594 ft 399 kts 139°
2026-04-25 19:49 16.84721 -62.21787 34859 ft 397 kts 139°
2026-04-25 19:49 16.83477 -62.20332 35047 ft 397 kts 139°
2026-04-25 19:49 16.81047 -62.17489 35412 ft 395 kts 139°
2026-04-25 19:49 16.79220 -62.15353 35681 ft 394 kts 139°
2026-04-25 19:50 16.75575 -62.11094 36168 ft 392 kts 140°
2026-04-25 19:50 16.73760 -62.08974 36404 ft 391 kts 140°
2026-04-25 19:50 16.71949 -62.06860 36624 ft 390 kts 140°
2026-04-25 19:51 16.70146 -62.04755 36902 ft 388 kts 139°
2026-04-25 19:51 16.68354 -62.02663 37159 ft 386 kts 139°
2026-04-25 19:51 16.66571 -62.00582 37384 ft 385 kts 139°
2026-04-25 19:51 16.64783 -61.98497 37569 ft 384 kts 139°
2026-04-25 19:52 16.63001 -61.96422 37770 ft 384 kts 140°
2026-04-25 19:52 16.61212 -61.94342 37915 ft 384 kts 140°
2026-04-25 19:52 16.59446 -61.92291 38054 ft 385 kts 139°
2026-04-25 19:52 16.57655 -61.90205 38182 ft 387 kts 139°
2026-04-25 19:53 16.55860 -61.88114 38298 ft 387 kts 139°
2026-04-25 19:53 16.54062 -61.86018 38456 ft 388 kts 139°
2026-04-25 19:53 16.52259 -61.83918 38562 ft 390 kts 139°
2026-04-25 19:54 16.48570 -61.79637 38354 ft 405 kts 139°
2026-04-25 19:54 16.46668 -61.77432 38231 ft 413 kts 139°
2026-04-25 19:54 16.44725 -61.75179 38111 ft 421 kts 139°
2026-04-25 19:55 16.40741 -61.70553 37933 ft 436 kts 138°
2026-04-25 19:55 16.36639 -61.65785 37937 ft 448 kts 138°
2026-04-25 19:56 16.32466 -61.60932 37937 ft 448 kts 137°
2026-04-25 19:56 16.28189 -61.56335 37942 ft 439 kts 147°
2026-04-25 19:57 16.23088 -61.53084 37936 ft 424 kts 164°
2026-04-25 19:57 16.17536 -61.51127 37939 ft 420 kts 169°
2026-04-25 19:58 16.11920 -61.49410 37933 ft 420 kts 169°
2026-04-25 19:58 16.06301 -61.47709 37936 ft 421 kts 169°
2026-04-25 19:59 16.00681 -61.45979 37933 ft 421 kts 169°
2026-04-25 19:59 15.95069 -61.44237 37936 ft 421 kts 169°
2026-04-25 20:00 15.89490 -61.42502 37939 ft 421 kts 169°
2026-04-25 20:00 15.83874 -61.40757 37946 ft 421 kts 169°
2026-04-25 20:01 15.75451 -61.38146 37951 ft 421 kts 169°
2026-04-25 20:01 15.69845 -61.36410 37961 ft 421 kts 169°
2026-04-25 20:02 15.64233 -61.34672 37963 ft 420 kts 168°
2026-04-25 20:02 15.58632 -61.32939 37964 ft 420 kts 168°
2026-04-25 20:03 15.53030 -61.31206 37966 ft 420 kts 168°
2026-04-25 20:03 15.47460 -61.29488 37967 ft 420 kts 168°
2026-04-25 20:04 15.41855 -61.27755 37911 ft 420 kts 168°
2026-04-25 20:04 15.36248 -61.26021 37917 ft 420 kts 168°
2026-04-25 20:05 15.30619 -61.24285 37914 ft 425 kts 168°
2026-04-25 20:05 15.24927 -61.22539 37922 ft 430 kts 167°
2026-04-25 20:06 15.19117 -61.20747 37928 ft 441 kts 167°
2026-04-25 20:06 15.13164 -61.18910 37933 ft 451 kts 167°
2026-04-25 20:07 15.07084 -61.17036 37937 ft 457 kts 167°
2026-04-25 20:07 15.01035 -61.15170 37928 ft 457 kts 168°
2026-04-25 20:08 14.94917 -61.13287 37936 ft 459 kts 168°
2026-04-25 20:08 14.88788 -61.11403 37934 ft 460 kts 168°
2026-04-25 20:09 14.82659 -61.09520 37935 ft 460 kts 168°
2026-04-25 20:09 14.76527 -61.07637 37934 ft 460 kts 168°
2026-04-25 20:10 14.70395 -61.05756 37928 ft 460 kts 168°
2026-04-25 20:10 14.64270 -61.03877 37931 ft 458 kts 167°
2026-04-25 20:11 14.58108 -61.02356 37934 ft 452 kts 178°
2026-04-25 20:11 14.51848 -61.01849 37933 ft 450 kts 180°
2026-04-25 20:12 14.45629 -61.01521 37936 ft 450 kts 181°
2026-04-25 20:12 14.41444 -61.01318 37935 ft 450 kts 181°
2026-04-25 20:13 14.33085 -61.00893 37932 ft 452 kts 180°
2026-04-25 20:13 14.26799 -61.00559 37929 ft 452 kts 180°
2026-04-25 20:14 14.20543 -61.00223 37931 ft 453 kts 180°
2026-04-25 20:14 14.14245 -60.99886 37931 ft 453 kts 180°
2026-04-25 20:15 14.07954 -60.99550 37931 ft 453 kts 180°
2026-04-25 20:15 14.01666 -60.99215 37939 ft 452 kts 180°
2026-04-25 20:16 13.95383 -60.98880 37938 ft 452 kts 180°
2026-04-25 20:16 13.89093 -60.98545 37939 ft 452 kts 180°
2026-04-25 20:17 13.82845 -60.98213 37938 ft 452 kts 180°
2026-04-25 20:17 13.76569 -60.97945 37938 ft 450 kts 184°
2026-04-25 20:18 13.70439 -60.99020 37942 ft 449 kts 201°
2026-04-25 20:18 13.64531 -61.01316 37941 ft 458 kts 204°
2026-04-25 20:19 13.58582 -61.03858 37942 ft 467 kts 204°
2026-04-25 20:19 13.52567 -61.06434 37941 ft 467 kts 204°
2026-04-25 20:20 13.46563 -61.08973 37938 ft 466 kts 204°
2026-04-25 20:20 13.40552 -61.11500 37933 ft 466 kts 203°
2026-04-25 20:21 13.34580 -61.14005 37918 ft 467 kts 203°
2026-04-25 20:21 13.28563 -61.16528 37914 ft 466 kts 203°
2026-04-25 20:22 13.24552 -61.18210 37911 ft 466 kts 203°
2026-04-25 20:22 13.16579 -61.21550 37501 ft 459 kts 203°
2026-04-25 20:23 13.13606 -61.22796 36625 ft 465 kts 203°
2026-04-25 20:23 13.10625 -61.24133 35744 ft 470 kts 206°
2026-04-25 20:23 13.07658 -61.25589 34960 ft 473 kts 207°
2026-04-25 20:23 13.04697 -61.27095 34189 ft 476 kts 208°
2026-04-25 20:24 13.01720 -61.28616 33325 ft 479 kts 208°
2026-04-25 20:24 12.98757 -61.30118 32422 ft 483 kts 207°
2026-04-25 20:24 12.95727 -61.31638 31503 ft 487 kts 207°
2026-04-25 20:24 12.92666 -61.33159 30580 ft 491 kts 206°
2026-04-25 20:25 12.89564 -61.34692 29633 ft 494 kts 206°
2026-04-25 20:25 12.86478 -61.36210 28950 ft 489 kts 206°
2026-04-25 20:25 12.83421 -61.37711 28244 ft 485 kts 206°
2026-04-25 20:25 12.80380 -61.39205 27473 ft 483 kts 206°
2026-04-25 20:26 12.77358 -61.40690 26763 ft 480 kts 206°
2026-04-25 20:26 12.74351 -61.42168 26064 ft 477 kts 206°
2026-04-25 20:26 12.71378 -61.43629 25397 ft 473 kts 206°
2026-04-25 20:26 12.68418 -61.45085 24767 ft 469 kts 206°
2026-04-25 20:27 12.65530 -61.46504 24157 ft 464 kts 206°
2026-04-25 20:27 12.62621 -61.47934 23531 ft 461 kts 206°
2026-04-25 20:27 12.59745 -61.49347 22850 ft 457 kts 206°
2026-04-25 20:27 12.56893 -61.50748 22175 ft 452 kts 206°
2026-04-25 20:28 12.54071 -61.52134 21635 ft 445 kts 205°
2026-04-25 20:28 12.51283 -61.53504 21000 ft 442 kts 205°
2026-04-25 20:28 12.48526 -61.54857 20419 ft 437 kts 205°
2026-04-25 20:28 12.45800 -61.56194 19852 ft 432 kts 205°
2026-04-25 20:29 12.43109 -61.57514 19177 ft 425 kts 205°
2026-04-25 20:29 12.40454 -61.58817 18387 ft 421 kts 205°
2026-04-25 20:29 12.37827 -61.60104 17534 ft 416 kts 205°
2026-04-25 20:29 12.35229 -61.61378 16673 ft 411 kts 205°
2026-04-25 20:30 12.32666 -61.62634 15857 ft 406 kts 205°
2026-04-25 20:30 12.30141 -61.63871 15059 ft 401 kts 205°
2026-04-25 20:30 12.27635 -61.65099 14278 ft 396 kts 205°
2026-04-25 20:30 12.25169 -61.66306 13503 ft 391 kts 205°
2026-04-25 20:31 12.22726 -61.67503 12624 ft 388 kts 205°
2026-04-25 20:31 12.20343 -61.68670 12024 ft 378 kts 205°
2026-04-25 20:31 12.18023 -61.69805 11726 ft 361 kts 205°
2026-04-25 20:31 12.15814 -61.70887 11487 ft 344 kts 205°
2026-04-25 20:32 12.13699 -61.71922 11241 ft 329 kts 205°
2026-04-25 20:32 12.11663 -61.72919 11011 ft 321 kts 205°
2026-04-25 20:32 12.09668 -61.73894 10766 ft 315 kts 205°
2026-04-25 20:32 12.08367 -61.74530 10615 ft 311 kts 205°
2026-04-25 20:33 12.06435 -61.75472 10383 ft 305 kts 204°
2026-04-25 20:33 12.04464 -61.76211 10149 ft 299 kts 194°
2026-04-25 20:33 12.02432 -61.76542 9916 ft 294 kts 182°
2026-04-25 20:33 12.01061 -61.76500 9765 ft 290 kts 173°
2026-04-25 20:34 11.98521 -61.75780 9419 ft 285 kts 155°
2026-04-25 20:34 11.96851 -61.74721 9158 ft 281 kts 141°
2026-04-25 20:34 11.95417 -61.73380 8899 ft 278 kts 136°
2026-04-25 20:34 11.94091 -61.71955 8678 ft 274 kts 133°
2026-04-25 20:35 11.92833 -61.70515 8475 ft 269 kts 132°
2026-04-25 20:35 11.91611 -61.69091 8245 ft 264 kts 132°
2026-04-25 20:35 11.90396 -61.67680 7929 ft 265 kts 132°
2026-04-25 20:35 11.89181 -61.66286 7577 ft 266 kts 133°
2026-04-25 20:36 11.87939 -61.64880 7221 ft 267 kts 133°
2026-04-25 20:36 11.86693 -61.63482 6974 ft 264 kts 133°
2026-04-25 20:36 11.85474 -61.62119 6829 ft 256 kts 133°
2026-04-25 20:36 11.84287 -61.60795 6699 ft 249 kts 133°
2026-04-25 20:37 11.83128 -61.59507 6543 ft 243 kts 133°
2026-04-25 20:37 11.81999 -61.58251 6403 ft 237 kts 133°
2026-04-25 20:37 11.80898 -61.57026 6243 ft 233 kts 133°
2026-04-25 20:37 11.79803 -61.55809 6100 ft 232 kts 133°
2026-04-25 20:38 11.78715 -61.54596 5965 ft 232 kts 133°
2026-04-25 20:38 11.77628 -61.53385 5839 ft 231 kts 133°
2026-04-25 20:38 11.76544 -61.52177 5720 ft 230 kts 133°
2026-04-25 20:38 11.75466 -61.50974 5595 ft 229 kts 133°
2026-04-25 20:39 11.74387 -61.49771 5477 ft 229 kts 133°
2026-04-25 20:39 11.73312 -61.48572 5357 ft 229 kts 133°
2026-04-25 20:39 11.72240 -61.47377 5227 ft 228 kts 133°
2026-04-25 20:39 11.71531 -61.46588 5149 ft 227 kts 133°
2026-04-25 20:40 11.70104 -61.45001 4995 ft 227 kts 133°
2026-04-25 20:40 11.69039 -61.43817 4874 ft 226 kts 133°
2026-04-25 20:40 11.67987 -61.42647 4780 ft 226 kts 133°
2026-04-25 20:40 11.66923 -61.41462 4709 ft 226 kts 132°
2026-04-25 20:41 11.65864 -61.40282 4634 ft 225 kts 132°
2026-04-25 20:41 11.64807 -61.39100 4542 ft 225 kts 132°
2026-04-25 20:41 11.63754 -61.37916 4470 ft 223 kts 132°
2026-04-25 20:41 11.62726 -61.36764 4395 ft 216 kts 132°
2026-04-25 20:42 11.61728 -61.35646 4321 ft 210 kts 132°
2026-04-25 20:42 11.60758 -61.34560 4217 ft 203 kts 132°
2026-04-25 20:42 11.59820 -61.33510 4151 ft 196 kts 132°
2026-04-25 20:42 11.58922 -61.32503 4070 ft 189 kts 131°
2026-04-25 20:43 11.58055 -61.31531 3984 ft 185 kts 132°
2026-04-25 20:43 11.57188 -61.30560 3908 ft 185 kts 132°
2026-04-25 20:43 11.56320 -61.29587 3837 ft 185 kts 131°
2026-04-25 20:43 11.55459 -61.28622 3762 ft 184 kts 131°
2026-04-25 20:44 11.54599 -61.27660 3690 ft 183 kts 131°
2026-04-25 20:44 11.53741 -61.26700 3624 ft 183 kts 131°
2026-04-25 20:44 11.52880 -61.25737 3551 ft 183 kts 131°
2026-04-25 20:44 11.52006 -61.24793 3494 ft 183 kts 134°
2026-04-25 20:45 11.51098 -61.23880 3441 ft 184 kts 134°
2026-04-25 20:45 11.50181 -61.22969 3401 ft 184 kts 134°
2026-04-25 20:45 11.49264 -61.22080 3349 ft 184 kts 136°
2026-04-25 20:45 11.48318 -61.21199 3298 ft 184 kts 136°
2026-04-25 20:46 11.47370 -61.20323 3257 ft 183 kts 136°
2026-04-25 20:46 11.46425 -61.19449 3203 ft 184 kts 136°
2026-04-25 20:46 11.45480 -61.18575 3157 ft 183 kts 136°
2026-04-25 20:46 11.44538 -61.17704 3102 ft 183 kts 136°
2026-04-25 20:47 11.43596 -61.16831 3057 ft 182 kts 136°
2026-04-25 20:47 11.42659 -61.15961 3015 ft 182 kts 136°
2026-04-25 20:47 11.41767 -61.15047 3009 ft 182 kts 130°
2026-04-25 20:47 11.40931 -61.14084 3005 ft 181 kts 130°
2026-04-25 20:48 11.40104 -61.13137 3007 ft 181 kts 130°
2026-04-25 20:48 11.39269 -61.12182 3007 ft 180 kts 130°
2026-04-25 20:48 11.38435 -61.11231 3005 ft 180 kts 130°
2026-04-25 20:48 11.37602 -61.10280 3005 ft 180 kts 130°
2026-04-25 20:49 11.36770 -61.09328 3001 ft 180 kts 130°
2026-04-25 20:49 11.35937 -61.08377 3002 ft 179 kts 131°
2026-04-25 20:49 11.35099 -61.07439 3006 ft 179 kts 131°
2026-04-25 20:49 11.34263 -61.06505 3003 ft 178 kts 131°
2026-04-25 20:50 11.33427 -61.05570 3000 ft 178 kts 131°
2026-04-25 20:50 11.32594 -61.04637 3004 ft 178 kts 131°
2026-04-25 20:50 11.31759 -61.03704 2991 ft 180 kts 131°
2026-04-25 20:50 11.30920 -61.02771 2989 ft 174 kts 131°
2026-04-25 20:51 11.30107 -61.01869 3003 ft 171 kts 131°
2026-04-25 20:51 11.29310 -61.00994 3001 ft 170 kts 131°
2026-04-25 20:51 11.28493 -61.00120 2996 ft 170 kts 135°
2026-04-25 20:51 11.27414 -60.99643 2996 ft 174 kts 175°
2026-04-25 20:52 11.26258 -61.00010 3001 ft 180 kts 211°
2026-04-25 20:52 11.25604 -61.00545 3007 ft 183 kts 219°
2026-04-25 20:52 11.24242 -61.01594 3004 ft 184 kts 207°
2026-04-25 20:52 11.23114 -61.02190 2997 ft 182 kts 198°
2026-04-25 20:53 11.21896 -61.02530 3010 ft 180 kts 184°
2026-04-25 20:53 11.20660 -61.02603 3005 ft 176 kts 173°
2026-04-25 20:53 11.19455 -61.02440 3001 ft 174 kts 160°
2026-04-25 20:53 11.18513 -61.01743 3001 ft 167 kts 125°
2026-04-25 20:54 11.17917 -61.00742 2897 ft 167 kts 116°
2026-04-25 20:54 11.17341 -60.99711 2736 ft 168 kts 122°
2026-04-25 20:54 11.16684 -60.98730 2560 ft 166 kts 124°
2026-04-25 20:54 11.16170 -60.97721 2349 ft 158 kts 106°
2026-04-25 20:55 11.15987 -60.96632 2097 ft 156 kts 97°
2026-04-25 20:55 11.15890 -60.95531 1868 ft 156 kts 97°
2026-04-25 20:55 11.15790 -60.94428 1718 ft 157 kts 97°
2026-04-25 20:55 11.15695 -60.93315 1672 ft 158 kts 95°
2026-04-25 20:56 11.15620 -60.92202 1509 ft 157 kts 97°
2026-04-25 20:56 11.15539 -60.91119 1304 ft 149 kts 97°
2026-04-25 20:56 11.15463 -60.90088 1111 ft 142 kts 97°
2026-04-25 20:56 11.15393 -60.89123 947 ft 133 kts 96°
2026-04-25 20:57 11.15322 -60.88195 806 ft 131 kts 97°
2026-04-25 20:57 11.15254 -60.87247 652 ft 138 kts 96°
2026-04-25 20:57 11.15192 -60.86278 425 ft 138 kts 97°
2026-04-25 20:57 11.15124 -60.85314 281 ft 136 kts 97°
2026-04-25 20:58 11.15052 -60.84361 94 ft 131 kts 96°
2026-04-25 20:58 11.14988 -60.83527 40 ft 89 kts 94°
2026-04-25 20:58 11.14960 -60.83138 42 ft 41 kts 94°
2026-04-25 20:58 11.14945 -60.82927 41 ft 12 kts 93°
2026-04-25 20:59 11.14925 -60.82869 41 ft 9 kts 123°
2026-04-25 20:59 11.14919 -60.82840 41 ft 2 kts 69°
2026-04-25 20:59 11.14932 -60.82842 41 ft 2 kts 343°
2026-04-25 20:59 11.14943 -60.82877 41 ft 9 kts 275°
2026-04-25 21:00 11.14948 -60.82960 41 ft 14 kts 274°
2026-04-25 21:00 11.14950 -60.82993 41 ft 15 kts 274°
2026-04-25 21:00 11.14977 -60.83386 40 ft 26 kts 274°
2026-04-25 21:01 11.14992 -60.83574 38 ft 27 kts 274°
2026-04-25 21:01 11.15006 -60.83772 38 ft 29 kts 274°
2026-04-25 21:01 11.15015 -60.83889 36 ft 7 kts 275°
2026-04-25 21:01 11.15022 -60.83945 36 ft 6 kts 281°
2026-04-25 21:02 11.15032 -60.83966 36 ft 2 kts 307°
2026-04-25 21:02 11.15046 -60.83973 36 ft 3 kts 337°
2026-04-25 21:02 11.15069 -60.83980 37 ft 4 kts 349°
2026-04-25 21:02 11.15092 -60.83982 38 ft 3 kts 353°
2026-04-25 21:03 11.15108 -60.83986 38 ft 2 kts 342°
2026-04-25 21:03 11.15118 -60.83995 38 ft 1 kts 313°
2026-04-25 21:03 11.15118 -60.84001 38 ft 1 kts 283°
2026-04-25 21:03 11.15120 -60.84024 39 ft 6 kts 276°
2026-04-25 21:04 11.15125 -60.84071 39 ft 7 kts 275°
2026-04-25 21:04 11.15120 -60.84124 39 ft 6 kts 262°
2026-04-25 21:04 11.15128 -60.84145 39 ft 3 kts 307°
2026-04-25 21:04 11.15145 -60.84152 39 ft 3 kts 342°
2026-04-25 21:05 11.15165 -60.84154 39 ft 3 kts 353°
2026-04-25 21:05 11.15181 -60.84153 39 ft 2 kts
2026-04-25 21:05 11.15185 -60.84152 39 ft 0 kts